Regional Weather Roundup
Issued by NWS

Home | Current Version | Previous Version | Graphics & Text | Print | Product List | Glossary On
Versions: 1 2 3 4 5 6 7 8 9 10 11 12 13 14 15 16 17 18 19 20 21 22 23 24 25 26 27 28 29 30 31 32 33 34 35 36 37 38 39 40 41 42 43 44 45 46 47 48 49 50
000
ASUS43 KIND 010709
RWRIN

WEATHER ROUNDUP FOR INDIANA
NATIONAL WEATHER SERVICE INDIANAPOLIS IN
300 AM EDT TUE SEP 01 2015

NOTE: "FAIR" INDICATES FEW OR NO CLOUDS BELOW 12,000 FEET WITH NO
SIGNIFICANT WEATHER AND/OR OBSTRUCTIONS TO VISIBILITY.

* - STATION DOES NOT REPORT WEATHER SUCH AS PRECIPITATION OR FOG.

+ - STATION NOT QUALITY CONTROLLED BY THE NATIONAL WEATHER SERVICE.
    USE DATA WITH CAUTION...ESPECIALLY DEWPOINT AND RELATIVE
    HUMIDITY OBSERVATIONS.

INZ001>003-010>013-019-020-010800-
NORTHWEST INDIANA

CITY           SKY/WX    TMP DP  RH WIND       PRES   REMARKS
GARY /AIRPORT/ PTCLDY    73  69  87 CALM      30.06S
KNOX *+        CLEAR     68  68 100 S3        30.07S
LA PORTE +     CLEAR    N/A N/A N/A CALM      30.08S FOG
MICHIGAN CITY+   N/A     68  68 100 CALM      30.07S FOG
MONTICELLO +   CLEAR     72  71  98 S3        30.08R
RENSSELAER +   CLEAR     70  70 100 SW3       30.08S
VALPARAISO     CLEAR     71  68  90 S5        30.08S

$$

LMZ046-743>745-010800-
SOUTHERN LAKE MICHIGAN

STATION/POSITION TIME  TEMP    WIND        PRES    WAVE
                       AIR SEA DIR/SP/G            HT
                 (UTC) (F)     (DEG/KT/KT) (MB)    (FT)
BURNS HARBOR     0600   74     190/  9/  9 1018.3R
MICHIGAN CITY    0600   76     160/ 10/ 12   N/A
5NW MICH CITY    0700   73 72  200/  6/  8   N/A     1

$$

INZ004-005-014>016-021>024-010800-
NORTH CENTRAL INDIANA

CITY           SKY/WX    TMP DP  RH WIND       PRES   REMARKS
GOSHEN         CLEAR     68  66  93 S5        30.08S FOG
LOGANSPORT +   CLEAR     68  63  83 S5        30.10S
ROCHESTER +    CLEAR     73  70  88 S3        30.09S
SOUTH BEND     CLEAR     69  67  93 CALM      30.08S FOG
WARSAW +       CLEAR     70  68  94 CALM      30.09S

$$

INZ006>009-017-018-025>027-010800-
NORTHEAST INDIANA

CITY           SKY/WX    TMP DP  RH WIND       PRES   REMARKS
ANGOLA *+        N/A     66  57  72 CALM      30.09S VSB 3/4
AUBURN +       CLEAR     70  66  88 CALM      30.09F FOG
FORT WAYNE     PTCLDY    71  68  90 S5        30.10S
HUNTINGTON +   CLEAR     71  66  84 CALM      30.09S

$$

INZ028-029-035-036-043>045-051>053-010800-
WEST CENTRAL INDIANA

CITY           SKY/WX    TMP DP  RH WIND       PRES   REMARKS
CRAWFORDSVL +  MOCLDY    64  64 100 CALM      30.10S FOG
GREENCASTLE +  PTCLDY    66  63  88 CALM      30.11S FOG
LAFAYETTE      PTCLDY    68  66  93 CALM      30.08S
TERRE HAUTE    CLEAR     68  66  93 CALM      30.09S

$$

INZ030>032-037>040-046>048-054>057-064-065-010800-
CENTRAL INDIANA

CITY           SKY/WX    TMP DP  RH WIND       PRES   REMARKS
FRANKFORT +    CLEAR    N/A N/A N/A CALM      30.12S HAZE
INDIANAPOLIS   CLEAR     71  67  87 CALM      30.09F
-EAGLE CREEK   CLEAR     70  68  93 CALM      30.10S
KOKOMO *+      MOCLDY    70  64  83 SW5       30.10S
MARION +       CLEAR     67  62  83 CALM      30.11S HAZE
MT COMFORT *+  CLEAR     66 N/A N/A S3        30.11F
SHELBYVILLE    CLEAR     67  64  90 CALM      30.10F FOG
ZIONSVILLE +   CLEAR     67  64  90 CALM      30.11F FOG

$$

INZ033-034-041-042-049-050-058-059-010800-
EAST CENTRAL INDIANA

CITY           SKY/WX    TMP DP  RH WIND       PRES   REMARKS
MUNCIE         CLEAR     66  65  96 CALM      30.11S

$$

INZ060-061-067>069-081>083-085>088-010800-
SOUTHWEST INDIANA

CITY           SKY/WX    TMP DP  RH WIND       PRES   REMARKS
EVANSVILLE     PTCLDY    71  68  90 CALM      30.10S
HUNTINGBURG *+ CLEAR     66  64  94 CALM      30.10F
WASHINGTON +   CLEAR     68  65  88 CALM      30.09F

$$

INZ062-063-066-070>080-084-089>092-010800-
SOUTH CENTRAL AND SOUTHEAST INDIANA

CITY           SKY/WX    TMP DP  RH WIND       PRES   REMARKS
BLOOMINGTON    CLEAR     66  64  93 CALM      30.11S FOG
MADISON *+     CLEAR     64  63  94 CALM      30.13S
NORTH VERNON + CLEAR     68  68 100 CALM      30.12S FOG
SEYMOUR +      CLEAR     66  64  94 CALM      30.10S FOG

$$



USA.gov is the U.S. government's official web portal to all federal, state and local government web resources and services.